STARLINK-1872

Last updated on Tue Nov 24 2020 00:02:02 GMT+0000 (Coordinated Universal Time)

1 46742U 20074D 20328.58334491 -.00048254 00000-0 -52362-3 0 9994 2 46742 53.0548 13.4166 0001235 47.9356 20.8043 15.62786318 1809

Satellite not in orbit